User: anonymous   Login
Location: Okie-Tex Star Party
(36.8978°N, 102.9520°W)
Time: 12:52:06
(UTC-05:00)
Language:

Hamsat - Orbit

View from above orbital plane
View from above orbital plane
View from above satellite
View from above satellite

Ground track
Ground track

The orbit data is extracted from the following two-line orbital elements,

1 28650U 05017B   15090.51283870  .00003410  00000-0  38437-3 0  9999
2 28650 097.5715 086.5263 0022633 290.3149 069.5635 14.87049221535905
Epoch (UTC): 31 March 2015 12:18:29
Eccentricity: 0.0022633
inclination: 97.5715°
perigee height: 591 km
apogee height: 623 km
right ascension of ascending node: 86.5263°
argument of perigee: 290.3149°
revolutions per day: 14.87049221
mean anomaly at epoch: 69.5635°
orbit number at epoch: 53590

The dashed part of the orbit path shows where the satellite is in the earth's shadow,  

DLR